Location: Zagreb
(45.8000°N, 16.0000°E)
Time: 15:41:35
(UTC+01:00)

SR - Pass Details

Date: 28 October 2020
Orbit: 579 x 876 km, 66.7° (Epoch: 27 November)

Event Time Altitude Azimuth Distance (km) Brightness Sun altitude
Exits shadow 03:40:03 12° 8° (N) 1,838 ? -30.2°
Drops below altitude 10° 03:40:32 10° 12° (NNE) 1,989 ? -30.1°
Sets 03:43:15 0° 27° (NNE) 2,944 ? -29.6°
